Powrót do katalogu

PELICAN-11

AktywnyNaukaSSO
NORAD 69871·PAYLOAD·🇺🇸 United States

Wystrzelony Jul 7, 2026 z Vandenberg Space Force Base

Loading…

Następne Przeloty (najbliższe 24 godziny)

TLE

ŚwieżeSource: CelesTrak SupGP

Epoka: Sep 14, 2026, 20:44 UTC

1 69871C 26156C   26257.86442130  .00001496  00000+0  13841-3 0  2577
2 69871  97.7182 157.2092 0004156 356.9311  57.8895 14.94621669    18

Śledź PELICAN-11 w czasie rzeczywistym z AllMySat

Download on the App Store